Location: Hanover
(52.3667°N, 9.7167°E)
Time: 00:09:11
(UTC+01:00)

CUBESAT XI-V - Visible Passes

Search period start: 14 January 2026 00:00
Search period end: 24 January 2026 00:00
Orbit: 645 x 664 km, 98.3° (Epoch: 13 January)

Date Brightness Start Highest point End Pass type
(mag) Time Alt. Az. Time Alt. Az. Time Alt. Az.
14 Jan ? 17:52:07 10° N 17:55:34 22° WNW 17:59:01 10° WSW visible
15 Jan ? 18:20:49 10° NNW 18:23:09 14° NW 18:25:28 10° W visible
16 Jan ? 17:10:36 10° N 17:14:56 44° WNW 17:19:15 10° SW visible
17 Jan ? 17:38:49 10° N 17:42:38 27° WNW 17:46:27 10° WSW visible
18 Jan ? 18:07:18 10° NNW 18:10:14 17° NW 18:13:12 10° W visible
19 Jan ? 18:36:30 10° NNW 18:37:45 11° NW 18:39:00 10° WNW visible
20 Jan ? 17:25:33 10° N 17:29:39 34° WNW 17:33:45 10° SW visible
21 Jan ? 17:53:52 10° N 17:57:18 21° WNW 18:00:44 10° WSW visible
22 Jan ? 18:22:33 10° NNW 18:24:51 14° NW 18:27:07 10° W visible
